{"data":{"norad_id":57890,"epoch":"2026-09-22T11:49:25.031712Z","epoch_age_seconds":136707,"freshness":"FRESH","line1":"1 57890U 23145E   26265.49265083  .00003447  00000+0  17205-3 0  9997","line2":"2 57890  34.9947 337.9982 0001584 321.8750  38.1850 15.17013487167648","mean_motion":15.17013487,"eccentricity":0.0001584,"inclination_deg":34.9947,"raan_deg":337.9982,"arg_perigee_deg":321.875,"mean_anomaly_deg":38.185,"bstar":0.00017205,"rev_number":16764,"period_min":94.923348562161,"perigee_km":513.78069515467,"apogee_km":515.96440057943,"semimajor_km":6893.009547867,"source":"CELESTRAK","updated_at":"2026-09-23T09:00:18.434278Z"}}